LiveATC.Net - Listen to live air traffic control over the Internet! Contact LiveATC.net for advertising information


ICAO: CYOO  IATA: YOO   Airport: Oshawa Municipal Airport
City: Oshawa   State/Province: Ontario
Country: Canada   Continent: North America
CYOO METAR Weather: CYOO 111200Z AUTO 32013KT 9SM SCT025 M17/M22 A2994 RMK SLP150
CYOO Flight Activity (FlightAware)
CYOO Webcam: (Airport Webcams)
CYOO Twr/Gnd #2
Feed Status: DOWN
Last heard on: 2016-02-06 03:20:03 (5 days 9 hours 41 minutes ago)
CYOO Twr/Gnd #2 Audio Archives
FacilityFrequency
Oshawa Ground118.400
Oshawa Tower120.100

NOTE: Distant receiver near Toronto

NOTICE

Unauthorized use prohibited. See LiveATC.net Terms of Service


Find LiveATC Audio Streams


Airport/ARTCC Code

Frequency
(e.g., 124.400, 128.75)
Site-wide search

Browse LiveATC Feeds
LiveATC Coverage Map
Top 50 LiveATC Feeds
Bad Weather Areas

LiveATC FAQ
Offer a LiveATC Feed
Contact LiveATC.net
Press Inquiries

LiveATC on iPhone
LiveATC on Android

Windows Phone
Windows 8/10

LiveATC Mobile
(Mobile browser)

ATC Audio Archives
Interesting Recordings

LiveATC Forums


Home Page
About LiveATC.net
Make a Donation
LiveATC Store

Terms of Use
Privacy Policy

Canadian Air Freqs

AIRMETs/SIGMETs

FAA Airport Status
Nat'l Airspace Status
Arrival Demand Charts


Server Software By:
Icecast.org
Liquidsoap

Please make a donation to help us keep growing!